Wind_Speed
17 18 6 11 16 18 22 26 32 35 41 46 53 58 62 68 61 25 11 10 11 13 17 19 23 25 25 25 7 19 21 21 19 18 16 25 28 31 31 28 31 26 23 28
14 5 5 10 16 17 20 25 30 34 39 43 49 55 58 63 60 38 11 9 11 11 14 15 20 21 21 25 12 18 20 17 13 16 14 26 30 32 29 23 17 19 16 22
16 11 6 8 14 16 19 23 29 34 37 42 47 51 54 60 60 45 14 8 8 9 11 15 17 18 18 22 16 16 16 14 13 13 15 30 32 26 25 19 14 14 14 14
16 13 6 8 11 16 19 23 27 32 34 39 44 48 50 57 59 50 20 8 7 8 9 12 13 16 13 14 15 10 12 15 9 3 20 35 33 24 22 18 12 16 13 18
15 9 5 7 9 16 20 21 26 30 32 36 40 45 47 52 57 52 33 7 6 7 8 11 13 13 9 11 10 10 12 13 7 3 22 32 34 29 22 19 17 16 14 15
17 15 8 6 10 14 19 21 24 29 32 34 38 43 45 48 54 51 41 12 7 6 6 6 10 10 10 6 7 9 6 10 9 3 22 31 37 30 23 18 19 15 11 11
21 17 12 9 8 13 18 21 25 27 30 32 36 39 44 45 51 50 43 20 7 7 7 6 7 8 9 5 1 3 3 3 11 8 26 33 28 29 24 22 20 17 13 10
19 17 13 11 8 11 16 20 26 28 29 31 33 36 41 42 47 47 43 29 10 8 6 5 4 5 6 6 1 2 2 5 7 12 21 23 29 26 27 21 24 24 19 11
23 19 13 10 7 9 13 19 24 27 27 29 32 35 39 40 43 46 44 35 14 9 5 6 4 4 5 4 4 2 3 6 14 15 17 14 21 30 29 24 28 28 26 17
25 21 18 13 8 8 12 18 22 26 27 29 31 33 36 38 40 43 44 38 22 10 6 6 6 4 4 3 2 1 2 5 13 18 19 17 13 13 17 20 32 34 32 32
27 21 18 14 10 6 10 15 19 25 25 27 28 30 33 35 38 39 42 39 28 14 7 6 7 5 4 4 3 1 3 5 8 12 15 14 12 13 12 14 23 26 29 30
22 16 14 13 8 7 8 12 19 25 26 27 27 28 30 32 35 37 40 40 37 20 8 8 7 7 7 6 6 6 5 7 10 11 12 12 12 11 12 12 14 16 19 22
24 24 18 15 10 10 8 14 18 24 25 26 26 25 29 30 33 34 36 39 40 28 15 12 11 10 9 9 9 8 9 10 11 11 11 11 11 12 13 13 13 14 16 18
31 25 20 18 12 6 10 17 19 23 26 24 25 24 26 28 31 32 33 35 39 38 23 14 15 16 13 12 11 12 12 12 12 13 13 13 13 12 11 15 16 17 17 19
34 30 22 20 17 13 12 16 18 21 24 24 24 24 25 26 28 29 31 32 35 38 34 19 17 18 16 16 16 16 14 14 15 15 16 15 15 14 15 14 15 16 17 17
39 36 26 22 18 15 13 15 16 19 25 26 24 23 22 24 25 28 29 30 32 34 37 32 18 21 21 16 18 18 18 17 17 18 18 18 18 18 17 17 17 18 18 19
36 35 30 26 20 15 14 16 15 19 21 25 23 22 20 22 23 26 27 29 30 31 34 38 30 17 21 24 21 20 19 19 18 18 20 20 19 20 21 21 21 20 20 20
43 33 28 21 17 16 15 18 17 19 20 23 23 23 22 23 23 24 25 27 29 30 31 35 37 29 20 20 28 27 23 21 22 19 20 21 21 21 22 22 23 23 23 23
38 35 31 26 22 23 22 23 22 20 19 21 23 24 24 22 23 24 25 26 28 29 30 32 35 38 29 21 21 29 30 24 22 23 21 21 23 24 24 24 24 24 25 24
39 37 33 31 34 31 26 25 21 21 20 22 23 24 24 24 26 25 26 25 25 28 29 30 33 36 38 28 20 19 27 28 26 24 24 23 24 24 24 25 25 25 25 24
38 36 32 33 33 30 28 31 23 24 20 21 23 24 24 25 27 27 27 27 26 26 26 27 31 33 38 31 23 20 23 28 28 27 27 26 24 24 24 23 22 22 21 21
35 36 38 36 36 36 33 31 29 22 21 22 24 25 24 26 28 28 27 26 28 27 26 26 28 33 33 35 25 23 22 25 29 28 28 27 27 26 25 24 22 20 21 24
37 38 33 35 39 40 34 34 27 24 23 23 25 25 25 27 29 29 29 29 29 30 30 28 27 30 35 35 30 25 25 24 28 30 30 30 28 26 26 23 22 22 22 23
41 37 37 36 36 33 34 35 27 22 24 26 26 26 26 28 30 30 30 31 31 33 33 32 29 29 32 34 31 27 28 28 28 30 33 30 28 27 26 25 25 26 25 25
38 40 39 34 33 35 38 34 26 24 26 26 27 27 27 29 31 31 32 33 34 34 35 34 31 32 34 37 35 31 29 32 30 28 29 29 33 33 31 30 29 27 26 24
39 38 34 34 35 39 36 29 24 27 26 27 28 28 28 32 33 32 33 34 35 36 37 36 34 34 36 39 44 41 33 34 36 33 29 30 29 29 29 28 27 26 24 23
40 37 37 38 39 38 34 30 26 26 26 27 28 29 31 34 35 34 35 35 37 39 37 35 36 36 40 44 48 51 43 33 40 36 33 30 30 30 30 28 26 23 23 22
Wind_Direction
252 271 312 329 331 339 346 3 6 9 8 11 13 9 4 1 358 356 341 331 343 354 355 358 1 1 8 21 85 156 165 184 197 196 202 203 193 192 191 191 202 204 209 216
256 254 327 335 332 340 348 3 7 8 9 11 14 10 6 1 358 1 342 333 343 353 356 0 2 4 12 31 74 151 158 172 186 206 202 189 183 193 194 200 187 192 194 205
263 240 296 351 338 348 349 3 7 8 9 9 12 10 7 2 358 3 347 336 338 345 1 5 5 9 21 35 74 136 154 167 184 203 197 184 184 191 192 183 163 165 177 185
257 256 277 346 358 357 351 357 5 7 8 9 10 8 7 5 359 1 358 330 332 351 356 9 11 9 17 35 46 125 161 175 166 194 186 183 186 181 187 186 181 163 164 180
236 267 282 333 358 1 355 357 2 6 6 10 7 7 7 7 1 0 2 336 333 342 359 2 6 13 12 32 44 51 167 170 185 200 187 198 198 197 196 201 187 168 149 165
233 250 282 302 346 358 356 357 2 1 5 8 7 6 6 7 5 2 359 350 334 333 351 11 9 2 18 29 70 67 108 160 159 173 187 192 206 204 205 205 181 169 160 170
228 247 280 257 328 356 357 359 2 356 1 6 5 7 4 5 6 1 0 359 322 333 339 358 12 5 11 26 73 108 114 169 168 176 189 195 208 210 207 199 199 190 194 195
230 250 257 279 289 339 354 357 1 355 358 3 3 3 3 4 7 4 2 0 334 325 328 345 355 6 10 22 201 328 180 182 191 152 181 207 214 212 208 214 210 206 208 207
232 240 251 248 291 323 348 357 355 354 356 3 -0 1 1 2 6 8 4 1 350 323 310 327 338 333 353 20 29 34 86 150 176 175 173 197 220 233 243 234 221 217 214 212
228 233 237 238 265 310 343 355 352 354 356 0 358 357 358 -0 3 8 6 3 354 332 303 324 316 317 308 325 16 53 113 146 181 181 193 200 207 220 235 229 223 219 225 246
218 220 233 238 253 298 348 355 352 354 356 354 353 351 356 359 1 7 8 4 0 345 301 307 305 292 288 278 269 242 211 198 194 196 205 214 221 234 235 233 219 223 227 228
193 211 227 236 235 271 330 343 342 345 350 349 348 346 352 358 -0 5 8 7 3 350 311 279 281 278 273 270 266 244 240 233 217 220 224 226 234 230 229 208 209 213 218 220
214 220 227 237 249 244 312 335 342 346 343 344 344 340 350 355 357 4 7 9 3 357 324 284 267 272 274 270 270 262 242 239 240 234 229 231 231 225 219 221 216 213 214 218
220 221 223 235 232 254 310 320 331 344 340 338 341 338 344 353 354 1 4 8 7 359 344 298 273 262 263 265 266 263 255 246 240 244 242 235 232 234 224 213 213 217 225 230
226 227 224 235 242 265 303 312 318 334 340 336 336 335 340 346 351 355 2 6 7 0 356 327 283 271 263 255 253 254 257 254 246 240 240 241 240 237 239 238 239 234 231 234
227 230 228 238 252 269 297 307 313 320 331 332 328 327 332 339 343 350 356 3 3 2 358 350 311 273 264 257 256 249 251 253 252 247 242 238 237 234 233 235 239 243 242 241
224 227 233 249 259 271 296 305 309 318 325 326 321 316 321 331 337 344 351 357 359 2 -0 355 344 307 272 257 254 258 250 249 247 248 247 241 238 236 233 232 233 234 238 241
226 232 239 243 257 274 287 307 314 314 319 324 317 314 314 322 329 337 342 351 354 0 358 0 350 342 308 275 253 250 252 251 250 245 243 242 240 240 239 238 239 241 244 246
222 231 234 242 266 275 290 301 307 310 313 316 311 307 305 315 321 326 332 341 349 354 356 1 357 353 340 313 283 257 248 248 250 250 246 243 239 238 241 242 243 245 246 247
227 232 242 250 265 274 281 301 303 308 309 311 305 301 300 310 313 317 323 329 343 350 350 355 356 359 348 332 320 274 252 246 249 248 249 248 245 240 241 243 246 248 249 248
229 238 248 260 262 272 277 294 299 307 303 304 298 294 295 303 306 308 315 322 327 337 343 346 350 352 352 341 312 296 259 246 246 249 248 251 250 248 245 244 242 243 246 250
232 240 255 257 259 263 279 286 293 294 298 294 288 286 289 294 298 300 305 311 316 322 333 335 339 345 346 347 325 295 277 253 247 247 250 251 249 248 247 245 244 250 258 263
233 245 252 261 266 266 271 284 292 298 294 287 283 280 283 288 292 294 299 305 307 312 319 325 329 333 338 341 334 303 278 268 254 247 250 250 245 240 239 237 248 257 265 266
232 246 254 256 263 264 274 282 290 296 288 281 282 278 280 286 289 290 296 300 304 306 311 316 317 322 326 328 326 308 279 270 267 261 250 248 248 247 246 248 256 265 266 266
239 249 251 257 264 272 278 279 286 292 285 279 278 276 280 285 287 290 293 295 301 304 309 309 308 314 319 322 318 310 284 267 263 264 258 255 252 250 251 256 260 259 263 267
241 243 253 262 270 274 273 284 286 291 279 278 277 278 282 283 285 290 291 294 297 301 301 301 302 307 312 317 318 314 297 269 259 258 257 254 255 248 247 251 254 257 260 263
244 253 260 267 272 273 278 288 286 277 272 275 277 279 281 283 284 289 290 293 296 297 299 297 299 304 308 311 312 314 310 275 254 255 254 256 251 246 245 239 242 249 257 254
Height
5706 5707 5706 5705 5701 5697 5693 5685 5678 5673 5666 5659 5648 5638 5626 5614 5599 5589 5587 5584 5582 5579 5576 5572 5568 5563 5555 5547 5543 5545 5551 5556 5561 5568 5571 5575 5581 5587 5592 5597 5603 5606 5610 5614
5701 5701 5701 5700 5697 5693 5689 5682 5676 5671 5664 5657 5647 5638 5629 5618 5602 5591 5586 5585 5584 5581 5578 5575 5571 5566 5560 5554 5549 5552 5556 5561 5565 5571 5574 5577 5582 5587 5592 5597 5602 5606 5610 5614
5695 5696 5695 5695 5693 5689 5685 5680 5674 5668 5661 5653 5646 5638 5630 5618 5604 5593 5586 5585 5583 5582 5580 5577 5574 5570 5566 5562 5559 5560 5563 5566 5569 5574 5575 5578 5584 5588 5594 5599 5602 5606 5609 5612
5689 5690 5691 5691 5689 5685 5682 5676 5672 5667 5660 5652 5645 5639 5630 5619 5606 5595 5586 5584 5583 5582 5581 5579 5576 5573 5571 5567 5566 5566 5567 5570 5573 5574 5576 5579 5584 5589 5594 5600 5604 5607 5609 5611
5683 5685 5686 5686 5685 5681 5678 5674 5669 5665 5658 5652 5646 5639 5630 5621 5609 5597 5587 5584 5583 5583 5582 5582 5579 5576 5574 5572 5570 5569 5570 5572 5574 5575 5578 5581 5585 5591 5596 5601 5604 5607 5609 5612
5677 5680 5681 5682 5681 5679 5675 5671 5666 5661 5656 5650 5645 5638 5631 5622 5611 5600 5589 5585 5584 5584 5583 5581 5581 5579 5577 5575 5574 5572 5572 5573 5575 5576 5578 5582 5587 5593 5598 5603 5606 5609 5611 5614
5670 5674 5676 5676 5677 5675 5672 5668 5663 5659 5654 5648 5644 5639 5632 5624 5614 5603 5592 5585 5584 5584 5584 5583 5582 5581 5579 5577 5576 5576 5576 5576 5576 5578 5580 5586 5589 5594 5598 5602 5605 5609 5612 5615
5664 5668 5671 5672 5672 5672 5669 5665 5661 5657 5652 5647 5643 5638 5632 5624 5616 5605 5593 5586 5584 5584 5583 5584 5584 5582 5581 5579 5577 5577 5577 5577 5578 5580 5583 5586 5589 5593 5598 5602 5606 5609 5611 5614
5658 5662 5665 5665 5667 5667 5665 5661 5658 5655 5651 5646 5641 5636 5631 5624 5616 5607 5597 5588 5584 5584 5584 5584 5583 5582 5581 5580 5579 5578 5577 5578 5580 5581 5584 5587 5589 5592 5595 5599 5604 5607 5609 5612
5652 5655 5659 5660 5662 5662 5661 5658 5655 5652 5648 5643 5639 5636 5631 5624 5617 5608 5599 5591 5585 5583 5583 5584 5583 5583 5582 5580 5580 5579 5579 5579 5582 5583 5584 5587 5588 5590 5591 5596 5602 5602 5604 5607
5645 5649 5652 5654 5657 5658 5657 5654 5652 5650 5647 5642 5638 5635 5630 5624 5617 5610 5603 5595 5586 5583 5582 5583 5582 5581 5581 5580 5580 5580 5581 5581 5582 5583 5584 5587 5586 5587 5590 5591 5592 5596 5599 5601
5638 5643 5646 5649 5651 5653 5652 5650 5649 5646 5644 5640 5636 5632 5629 5624 5617 5611 5604 5597 5588 5583 5582 5581 5580 5581 5580 5580 5579 5578 5581 5581 5581 5583 5584 5583 5583 5585 5586 5587 5589 5591 5594 5596
5631 5635 5640 5643 5646 5647 5647 5647 5645 5643 5641 5638 5634 5631 5627 5622 5616 5611 5606 5597 5590 5583 5581 5579 5580 5579 5580 5579 5580 5578 5577 5577 5579 5580 5580 5580 5582 5583 5583 5584 5585 5588 5591 5594
5624 5629 5633 5637 5640 5642 5643 5643 5641 5640 5637 5636 5633 5629 5625 5620 5615 5611 5605 5598 5591 5583 5578 5577 5576 5575 5577 5577 5578 5577 5577 5575 5575 5575 5577 5578 5579 5580 5580 5582 5583 5585 5587 5589
5617 5622 5627 5631 5634 5636 5637 5638 5636 5635 5636 5632 5628 5625 5621 5617 5614 5610 5604 5598 5592 5585 5578 5574 5573 5573 5573 5572 5572 5573 5574 5574 5574 5573 5573 5574 5575 5576 5577 5578 5579 5581 5583 5585
5610 5615 5620 5624 5628 5630 5632 5632 5633 5631 5629 5627 5625 5622 5618 5615 5612 5607 5602 5598 5593 5587 5579 5573 5569 5569 5569 5569 5568 5569 5570 5570 5571 5571 5570 5570 5571 5572 5573 5574 5576 5577 5579 5580
5603 5608 5613 5618 5622 5624 5626 5627 5627 5626 5625 5623 5620 5619 5616 5612 5608 5604 5600 5596 5592 5586 5579 5572 5565 5563 5564 5563 5563 5565 5564 5564 5564 5566 5567 5567 5567 5568 5569 5570 5571 5573 5575 5576
5596 5602 5607 5611 5615 5618 5620 5621 5621 5621 5620 5617 5615 5613 5611 5607 5604 5601 5598 5593 5589 5584 5579 5571 5563 5560 5558 5557 5555 5556 5558 5559 5560 5559 5560 5562 5562 5564 5565 5566 5567 5568 5569 5570
5589 5595 5599 5603 5608 5611 5613 5614 5614 5614 5615 5611 5609 5607 5606 5602 5600 5596 5594 5590 5586 5582 5577 5571 5564 5557 5553 5551 5549 5550 5551 5553 5554 5556 5555 5556 5556 5557 5559 5560 5561 5562 5563 5564
5582 5588 5593 5597 5601 5605 5607 5607 5608 5608 5607 5604 5603 5601 5599 5598 5595 5591 5589 5586 5583 5579 5575 5568 5562 5556 5551 5546 5544 5543 5545 5548 5549 5549 5551 5550 5550 5551 5552 5553 5555 5556 5557 5558
5575 5581 5586 5590 5592 5597 5599 5600 5602 5602 5601 5598 5597 5595 5593 5591 5589 5586 5583 5579 5578 5575 5571 5566 5560 5554 5549 5543 5541 5540 5538 5540 5542 5543 5543 5544 5544 5545 5546 5547 5547 5549 5550 5551
5569 5574 5577 5580 5584 5589 5592 5593 5594 5595 5594 5591 5590 5588 5586 5584 5582 5580 5577 5574 5572 5570 5566 5562 5557 5552 5546 5541 5537 5536 5534 5533 5534 5535 5536 5537 5538 5539 5539 5540 5541 5542 5542 5543
5561 5566 5569 5573 5576 5579 5583 5585 5587 5586 5585 5583 5582 5581 5580 5577 5576 5573 5571 5568 5565 5562 5559 5556 5553 5547 5542 5537 5532 5531 5529 5528 5527 5528 5529 5529 5530 5531 5532 5533 5534 5535 5535 5535
5553 5558 5561 5565 5567 5572 5575 5577 5578 5578 5577 5575 5574 5573 5572 5570 5568 5566 5563 5561 5558 5554 5552 5548 5545 5541 5537 5531 5527 5524 5523 5522 5521 5521 5521 5521 5521 5523 5524 5525 5526 5527 5527 5527
5546 5549 5552 5557 5562 5563 5566 5567 5569 5570 5568 5567 5566 5565 5564 5562 5560 5558 5555 5552 5550 5547 5543 5539 5536 5533 5529 5524 5519 5515 5513 5513 5512 5511 5511 5512 5512 5513 5515 5516 5517 5518 5518 5518
5537 5542 5547 5550 5553 5556 5557 5559 5560 5560 5559 5559 5558 5556 5555 5553 5551 5550 5547 5544 5542 5539 5534 5530 5526 5524 5520 5515 5510 5505 5502 5502 5501 5502 5502 5502 5503 5503 5505 5507 5508 5509 5510 5510
5530 5536 5540 5543 5545 5547 5548 5550 5551 5551 5551 5549 5548 5547 5545 5543 5541 5540 5538 5536 5532 5529 5525 5521 5517 5515 5509 5504 5498 5494 5490 5488 5488 5490 5491 5492 5492 5494 5495 5497 5499 5501 5502 5502